Hourly Data Report for October 14, 2015

All times are specified in Local Standard Time (LST). Add 1 hour to adjust for Daylight Saving Time where and when it is observed.

MONCTON INTL A
NEW BRUNSWICK

46°06'44.000" N
64°40'43.000" W
70.70 m
8103201
71705
YQM

Download Data

Hourly Data (October 2015)
Hourly Data Report for October 14, 2015
Temp Definition
°C
Dew Point Temp Definition
°C
Rel Hum Definition
%
Wind Dir Definition
10's deg

Wind Spd Definition
km/h
Visibility Definition
km
Stn Press Definition
kPa
Hmdx Definition


Wind Chill Definition


Weather Definition


TIME
00:00 Legend Double Dagger 15.6 15.0 96 20 10 24.1 98.92     LegendNANA
01:00 Legend Double Dagger 15.9 15.0 94 19 15 24.1 98.89     LegendNANA
02:00 Legend Double Dagger 15.9 14.6 92 19 18 24.1 98.85     Mostly Cloudy
03:00 Legend Double Dagger 16.3 14.7 90 19 27 24.1 98.79     LegendNANA
04:00 Legend Double Dagger 15.9 14.5 91 20 16 24.1 98.74     LegendNANA
05:00 Legend Double Dagger 16.3 14.9 91 20 16 24.1 98.74     Cloudy
06:00 Legend Double Dagger 16.0 14.4 90 18 18 24.1 98.70     LegendNANA
07:00 Legend Double Dagger 15.7 14.3 91 20 16 24.1 98.74     LegendNANA
08:00 Legend Double Dagger 15.6 13.8 89 23 24 24.1 98.82     Rain Showers
09:00 Legend Double Dagger 16.6 13.7 83 21 27 24.1 98.85     LegendNANA
10:00 Legend Double Dagger 16.0 12.6 80 23 35 24.1 98.95     LegendNANA
11:00 Legend Double Dagger 17.3 11.4 68 22 26 24.1 98.91     Mostly Cloudy
12:00 Legend Double Dagger 19.1 11.5 61 20 25 24.1 98.90     LegendNANA
13:00 Legend Double Dagger 18.3 10.3 59 24 29 24.1 98.93     LegendNANA
14:00 Legend Double Dagger 19.3 10.4 56 23 35 24.1 98.91     Mostly Cloudy
15:00 Legend Double Dagger 18.9 11.1 60 23 25 24.1 98.93     LegendNANA
16:00 Legend Double Dagger 17.4 10.8 65 23 19 24.1 98.99     LegendNANA
17:00 Legend Double Dagger 16.9 11.2 69 23 16 24.1 99.04     Mostly Cloudy
18:00 Legend Double Dagger 15.1 11.5 79 19 17 24.1 99.07     LegendNANA
19:00 Legend Double Dagger 14.0 10.5 79 20 14 24.1 99.15     LegendNANA
20:00 Legend Double Dagger 13.7 10.4 80 20 16 24.1 99.22     Mostly Cloudy
21:00 Legend Double Dagger 13.1 10.5 84 22 10 24.1 99.28     LegendNANA
22:00 Legend Double Dagger 13.3 10.9 85 23 14 24.1 99.36     LegendNANA
23:00 Legend Double Dagger 11.2 7.5 78 27 15 24.1 99.42     Cloudy

Notes on Data Quality.

Legend

  • E = Estimated
  • M = Missing
  • NA = Not Available
  • ‡ = Partner data that is not subject to review by the National Climate Archives
Date modified: